Regional Weather Roundup
Issued by NWS Albany, NY

Home | Current Version | Previous Version | Text Only | Print | Product List | Glossary On
Versions: 1 2 3 4 5 6 7 8 9 10 11 12 13 14 15 16 17 18 19 20 21 22 23 24 25 26 27 28 29 30 31 32 33 34 35 36 37 38 39 40 41 42 43 44 45 46 47 48 49 50
000
ASUS41 KALY 260610
RWRALY

NEW YORK STATE HOURLY WEATHER ROUNDUP
NATIONAL WEATHER SERVICE ALBANY NY
200 AM EDT SAT JUL 26 2014

NOTE: "FAIR" INDICATES FEW OR NO CLOUDS BELOW 12,000 FEET WITH NO
SIGNIFICANT WEATHER AND/OR NO OBSTRUCTIONS TO VISIBILITY.

NYZ032-033-038>043-046>054-057>066-NYZ062>081-260700-
EAST


CITY           SKY/WX    TMP DP  RH WIND       PRES   REMARKS
ALBANY         PTCLDY    63  59  87 CALM      29.98S
GLENS FALLS    CLEAR     56  54  93 CALM      29.96F
POUGHKEEPSIE   PTCLDY    61  58  90 CALM      29.98S
NEWBURGH       CLEAR     64  59  82 CALM      30.01S
MONTGOMERY     PTCLDY    59  56  89 CALM      29.99F
WHITE PLAINS   CLEAR     64  60  87 CALM      29.99F
ISLIP          CLEAR     71  66  84 SW9       29.99F
NEW YORK CITY  MOCLDY    72  60  66 SW9       29.99S
CENTRAL PARK   PTCLDY    71  61  70 W5        30.02F
$$

NYZ005>009-017-018-044>046-055-056-260700-
CENTRAL


CITY           SKY/WX    TMP DP  RH WIND       PRES   REMARKS
FULTON         PTCLDY    55  53  93 CALM      29.97S FOG
SYRACUSE       PTCLDY    63  58  83 S3        29.97S
ROME           MOCLDY    57  55  93 CALM      29.98S
ELMIRA         CLEAR     54  53  97 CALM      30.01S
BINGHAMTON     PTCLDY    60  53  77 W5        30.02S
MONTICELLO     MOCLDY    57  55  94 CALM      30.03F
$$

NYZ026>034-041>043-260700-
NORTH


CITY           SKY/WX    TMP DP  RH WIND       PRES   REMARKS
WATERTOWN      PTCLDY    63  51  65 S3        29.94F
FORT DRUM      NOT AVBL
MASSENA        CLEAR     58  54  86 SW8       29.91F
SARANAC LAKE   CLEAR     48  46  93 CALM      29.97F
PLATTSBURGH    CLEAR     60  53  77 VRB3      29.92F
$$

NYZ001>004-010>016-019>021-260700-
WEST


CITY           SKY/WX    TMP DP  RH WIND       PRES   REMARKS
NIAGARA FALLS  CLEAR     63  56  78 SW8       29.96F
BUFFALO        PTCLDY    61  55  81 S6        29.97F
DUNKIRK        CLOUDY    63  55  75 S6        29.98F
JAMESTOWN      CLOUDY    57  54  88 CALM      30.03S
WELLSVILLE     PTCLDY    56  50  80 CALM      30.04F
ROCHESTER      PTCLDY    59  52  77 SW6       29.97F
PENN YAN       PTCLDY    62  57  83 S5        30.00S
$$

             KEY
       WCI = WIND CHILL INDEX
       VSB = VISIBILITY
       HX  = HEAT INDEX
$$


USA.gov is the U.S. government's official web portal to all federal, state and local government web resources and services.